contact:dominique.lefevre@mio.osupytheas.fr, maurice.libes@osupytheas.fr, didier.mallarino@osupytheas.fr
Project:EMSO http://www.emso-fr.org/EMSO-France
Depth: 2436.0 m
Title:EMSO Ligure Ouest : Data MII capteur MICROCAT
DateTime_Computer,Latitude,Longitude,Temperature,Conductivity,Pressure,DateTime_Instrument
DateTime_Computer,Latitude,Longitude,degC,S m-1,dbar,DateTime_Instrument
2019-11-25T00:00:35Z,42.805,6.029,13.2964,4.59964,2469.853,2019-11-25T02:01:04Z
2019-11-25T00:03:38Z,42.805,6.029,13.2965,4.59963,2469.83,2019-11-25T02:04:07Z
2019-11-25T00:06:42Z,42.805,6.029,13.2966,4.59963,2469.83,2019-11-25T02:07:10Z
2019-11-25T00:09:45Z,42.805,6.029,13.2968,4.59966,2469.783,2019-11-25T02:10:13Z
2019-11-25T00:12:48Z,42.805,6.029,13.2967,4.59966,2469.821,2019-11-25T02:13:17Z
2019-11-25T00:15:51Z,42.805,6.029,13.2966,4.59963,2469.797,2019-11-25T02:16:20Z
2019-11-25T00:18:54Z,42.805,6.029,13.2967,4.59963,2469.83,2019-11-25T02:19:23Z
2019-11-25T00:21:58Z,42.805,6.029,13.2967,4.59964,2469.83,2019-11-25T02:22:26Z
2019-11-25T00:25:01Z,42.805,6.029,13.2964,4.59964,2469.844,2019-11-25T02:25:29Z
2019-11-25T00:28:04Z,42.805,6.029,13.2967,4.59963,2469.867,2019-11-25T02:28:33Z
2019-11-25T00:31:07Z,42.805,6.029,13.2967,4.59964,2469.853,2019-11-25T02:31:36Z
2019-11-25T00:34:10Z,42.805,6.029,13.2967,4.59963,2469.844,2019-11-25T02:34:39Z
2019-11-25T00:37:14Z,42.805,6.029,13.2968,4.59963,2469.797,2019-11-25T02:37:42Z
2019-11-25T00:40:17Z,42.805,6.029,13.2964,4.59964,2469.83,2019-11-25T02:40:45Z
2019-11-25T00:43:20Z,42.805,6.029,13.2968,4.59966,2469.83,2019-11-25T02:43:49Z
2019-11-25T00:46:23Z,42.805,6.029,13.2967,4.59968,2469.806,2019-11-25T02:46:52Z
2019-11-25T00:49:27Z,42.805,6.029,13.2967,4.59964,2469.844,2019-11-25T02:49:55Z
2019-11-25T00:52:30Z,42.805,6.029,13.2970,4.59964,2469.844,2019-11-25T02:52:58Z
2019-11-25T00:55:33Z,42.805,6.029,13.2964,4.59966,2469.83,2019-11-25T02:56:02Z
2019-11-25T00:58:36Z,42.805,6.029,13.2966,4.59966,2469.83,2019-11-25T02:59:05Z
2019-11-25T01:01:39Z,42.805,6.029,13.2966,4.59964,2469.83,2019-11-25T03:02:08Z
2019-11-25T01:04:43Z,42.805,6.029,13.2963,4.59963,2469.83,2019-11-25T03:05:11Z
2019-11-25T01:07:46Z,42.805,6.029,13.2965,4.59964,2469.844,2019-11-25T03:08:14Z
2019-11-25T01:10:49Z,42.805,6.029,13.2966,4.59963,2469.853,2019-11-25T03:11:18Z
2019-11-25T01:13:52Z,42.805,6.029,13.2967,4.59963,2469.806,2019-11-25T03:14:21Z
2019-11-25T01:16:55Z,42.805,6.029,13.2967,4.59964,2469.83,2019-11-25T03:17:24Z
2019-11-25T01:19:59Z,42.805,6.029,13.2968,4.59966,2469.83,2019-11-25T03:20:27Z
2019-11-25T01:23:02Z,42.805,6.029,13.2963,4.59966,2469.844,2019-11-25T03:23:30Z
2019-11-25T01:26:06Z,42.805,6.029,13.2966,4.59965,2469.867,2019-11-25T03:26:34Z
2019-11-25T01:29:09Z,42.805,6.029,13.2966,4.59966,2469.83,2019-11-25T03:29:37Z
2019-11-25T01:32:12Z,42.805,6.029,13.2966,4.59967,2469.853,2019-11-25T03:32:40Z
2019-11-25T01:35:15Z,42.805,6.029,13.2967,4.59967,2469.89,2019-11-25T03:35:44Z
2019-11-25T01:38:18Z,42.805,6.029,13.2965,4.59966,2469.853,2019-11-25T03:38:47Z
2019-11-25T01:41:22Z,42.805,6.029,13.2965,4.59967,2469.867,2019-11-25T03:41:50Z
2019-11-25T01:44:25Z,42.805,6.029,13.2966,4.59966,2469.83,2019-11-25T03:44:53Z
2019-11-25T01:47:28Z,42.805,6.029,13.2967,4.59967,2469.83,2019-11-25T03:47:56Z
2019-11-25T01:50:31Z,42.805,6.029,13.2967,4.59964,2469.853,2019-11-25T03:51:00Z
2019-11-25T01:53:34Z,42.805,6.029,13.2964,4.59966,2469.89,2019-11-25T03:54:03Z
2019-11-25T01:56:37Z,42.805,6.029,13.2968,4.59964,2469.876,2019-11-25T03:57:06Z
2019-11-25T01:59:41Z,42.805,6.029,13.2966,4.59966,2469.853,2019-11-25T04:00:09Z
2019-11-25T02:02:44Z,42.805,6.029,13.2968,4.59966,2469.9,2019-11-25T04:03:12Z
2019-11-25T02:05:47Z,42.805,6.029,13.2967,4.59966,2469.876,2019-11-25T04:06:15Z
2019-11-25T02:08:50Z,42.805,6.029,13.2969,4.59966,2469.853,2019-11-25T04:09:19Z
2019-11-25T02:11:53Z,42.805,6.029,13.2965,4.59966,2469.867,2019-11-25T04:12:22Z
2019-11-25T02:14:56Z,42.805,6.029,13.2966,4.59966,2469.876,2019-11-25T04:15:25Z
2019-11-25T02:18:00Z,42.805,6.029,13.2969,4.59966,2469.914,2019-11-25T04:18:28Z
2019-11-25T02:21:03Z,42.805,6.029,13.2967,4.59967,2469.9,2019-11-25T04:21:31Z
2019-11-25T02:24:06Z,42.805,6.029,13.2967,4.59967,2469.914,2019-11-25T04:24:35Z
2019-11-25T02:27:09Z,42.805,6.029,13.2967,4.59966,2469.89,2019-11-25T04:27:38Z
2019-11-25T02:30:13Z,42.805,6.029,13.2962,4.59966,2469.914,2019-11-25T04:30:41Z
2019-11-25T02:33:16Z,42.805,6.029,13.2963,4.59966,2469.9,2019-11-25T04:33:44Z
2019-11-25T02:36:19Z,42.805,6.029,13.2963,4.59966,2469.914,2019-11-25T04:36:47Z
2019-11-25T02:39:22Z,42.805,6.029,13.2965,4.59966,2469.937,2019-11-25T04:39:51Z
2019-11-25T02:42:25Z,42.805,6.029,13.2961,4.59965,2469.9,2019-11-25T04:42:54Z
2019-11-25T02:45:28Z,42.805,6.029,13.2964,4.59966,2469.886,2019-11-25T04:45:57Z
2019-11-25T02:48:32Z,42.805,6.029,13.2967,4.59966,2469.9,2019-11-25T04:49:00Z
2019-11-25T02:51:35Z,42.805,6.029,13.2967,4.59966,2469.937,2019-11-25T04:52:03Z
2019-11-25T02:54:38Z,42.805,6.029,13.2967,4.59966,2469.923,2019-11-25T04:55:07Z
2019-11-25T02:57:41Z,42.805,6.029,13.2966,4.59966,2469.923,2019-11-25T04:58:10Z
2019-11-25T03:00:44Z,42.805,6.029,13.2966,4.59966,2469.937,2019-11-25T05:01:13Z
2019-11-25T03:03:48Z,42.805,6.029,13.2967,4.59966,2469.96,2019-11-25T05:04:16Z
2019-11-25T03:06:51Z,42.805,6.029,13.2968,4.59966,2469.96,2019-11-25T05:07:19Z
2019-11-25T03:09:54Z,42.805,6.029,13.2968,4.59967,2469.937,2019-11-25T05:10:22Z
2019-11-25T03:12:57Z,42.805,6.029,13.2967,4.59966,2469.947,2019-11-25T05:13:26Z
2019-11-25T03:16:00Z,42.805,6.029,13.2968,4.59968,2469.96,2019-11-25T05:16:29Z
2019-11-25T03:19:04Z,42.805,6.029,13.2967,4.59965,2469.96,2019-11-25T05:19:32Z
2019-11-25T03:22:07Z,42.805,6.029,13.2968,4.59966,2469.984,2019-11-25T05:22:35Z
2019-11-25T03:25:10Z,42.805,6.029,13.2963,4.59966,2469.947,2019-11-25T05:25:39Z
2019-11-25T03:28:13Z,42.805,6.029,13.2971,4.59965,2469.947,2019-11-25T05:28:42Z
2019-11-25T03:31:16Z,42.805,6.029,13.2968,4.59966,2469.97,2019-11-25T05:31:45Z
2019-11-25T03:34:20Z,42.805,6.029,13.2969,4.59968,2469.97,2019-11-25T05:34:48Z
2019-11-25T03:37:23Z,42.805,6.029,13.2964,4.59968,2469.984,2019-11-25T05:37:51Z
2019-11-25T03:40:26Z,42.805,6.029,13.2966,4.59964,2469.97,2019-11-25T05:40:55Z
2019-11-25T03:43:29Z,42.805,6.029,13.2967,4.59966,2469.947,2019-11-25T05:43:58Z
2019-11-25T03:46:32Z,42.805,6.029,13.2966,4.59966,2469.947,2019-11-25T05:47:01Z
2019-11-25T03:49:36Z,42.805,6.029,13.2964,4.59966,2469.984,2019-11-25T05:50:04Z
2019-11-25T03:52:39Z,42.805,6.029,13.2971,4.59966,2470.03,2019-11-25T05:53:07Z
2019-11-25T03:55:42Z,42.805,6.029,13.2966,4.59967,2470.007,2019-11-25T05:56:11Z
2019-11-25T03:58:45Z,42.805,6.029,13.2965,4.59966,2469.97,2019-11-25T05:59:14Z
2019-11-25T04:01:48Z,42.805,6.029,13.2965,4.59966,2469.993,2019-11-25T06:02:17Z
2019-11-25T04:04:52Z,42.805,6.029,13.2967,4.59967,2469.993,2019-11-25T06:05:20Z
2019-11-25T04:07:55Z,42.805,6.029,13.2966,4.59966,2470.007,2019-11-25T06:08:23Z
2019-11-25T04:10:58Z,42.805,6.029,13.2969,4.59966,2469.97,2019-11-25T06:11:27Z
2019-11-25T04:14:01Z,42.805,6.029,13.2970,4.59964,2470.007,2019-11-25T06:14:30Z
2019-11-25T04:17:05Z,42.805,6.029,13.2964,4.59966,2470.017,2019-11-25T06:17:33Z
2019-11-25T04:20:08Z,42.805,6.029,13.2967,4.59966,2470.03,2019-11-25T06:20:36Z
2019-11-25T04:23:11Z,42.805,6.029,13.2965,4.59966,2470.017,2019-11-25T06:23:40Z
2019-11-25T04:26:14Z,42.805,6.029,13.2967,4.59966,2469.993,2019-11-25T06:26:43Z
2019-11-25T04:29:17Z,42.805,6.029,13.2969,4.59966,2470.017,2019-11-25T06:29:46Z
2019-11-25T04:32:21Z,42.805,6.029,13.2962,4.59965,2470.03,2019-11-25T06:32:49Z
2019-11-25T04:35:24Z,42.805,6.029,13.2968,4.59966,2470.03,2019-11-25T06:35:52Z
2019-11-25T04:38:27Z,42.805,6.029,13.2970,4.59966,2470.04,2019-11-25T06:38:56Z
2019-11-25T04:41:30Z,42.805,6.029,13.2966,4.59966,2470.053,2019-11-25T06:41:59Z
2019-11-25T04:44:33Z,42.805,6.029,13.2970,4.59967,2470.04,2019-11-25T06:45:02Z
2019-11-25T04:47:37Z,42.805,6.029,13.2967,4.59965,2469.993,2019-11-25T06:48:05Z
2019-11-25T04:50:40Z,42.805,6.029,13.2966,4.59966,2470.017,2019-11-25T06:51:08Z
2019-11-25T04:53:43Z,42.805,6.029,13.2964,4.59966,2470.04,2019-11-25T06:54:12Z
2019-11-25T04:56:46Z,42.805,6.029,13.2964,4.59966,2470.017,2019-11-25T06:57:15Z
2019-11-25T04:59:49Z,42.805,6.029,13.2968,4.59966,2470.053,2019-11-25T07:00:18Z
2019-11-25T05:02:53Z,42.805,6.029,13.2963,4.59966,2470.04,2019-11-25T07:03:21Z
2019-11-25T05:05:56Z,42.805,6.029,13.2966,4.59966,2470.03,2019-11-25T07:06:24Z
2019-11-25T05:08:59Z,42.805,6.029,13.2964,4.59966,2470.053,2019-11-25T07:09:28Z
2019-11-25T05:12:02Z,42.805,6.029,13.2967,4.59965,2470.063,2019-11-25T07:12:31Z
2019-11-25T05:15:05Z,42.805,6.029,13.2967,4.59964,2470.053,2019-11-25T07:15:34Z
2019-11-25T05:18:09Z,42.805,6.029,13.2966,4.59964,2470.077,2019-11-25T07:18:37Z
2019-11-25T05:21:12Z,42.805,6.029,13.2967,4.59966,2470.053,2019-11-25T07:21:40Z
2019-11-25T05:24:15Z,42.805,6.029,13.2967,4.59964,2470.077,2019-11-25T07:24:44Z
2019-11-25T05:27:18Z,42.805,6.029,13.2968,4.59964,2470.077,2019-11-25T07:27:47Z
2019-11-25T05:30:22Z,42.805,6.029,13.2967,4.59965,2470.04,2019-11-25T07:30:50Z
2019-11-25T05:33:25Z,42.805,6.029,13.2967,4.59964,2470.063,2019-11-25T07:33:53Z
2019-11-25T05:36:28Z,42.805,6.029,13.2963,4.59964,2470.063,2019-11-25T07:36:56Z
2019-11-25T05:39:31Z,42.805,6.029,13.2963,4.59965,2470.063,2019-11-25T07:40:00Z
2019-11-25T05:42:34Z,42.805,6.029,13.2969,4.59965,2470.077,2019-11-25T07:43:03Z
2019-11-25T05:45:38Z,42.805,6.029,13.2963,4.59966,2470.077,2019-11-25T07:46:06Z
2019-11-25T05:48:41Z,42.805,6.029,13.2968,4.59964,2470.077,2019-11-25T07:49:09Z
2019-11-25T05:51:44Z,42.805,6.029,13.2966,4.59966,2470.077,2019-11-25T07:52:12Z
2019-11-25T05:54:47Z,42.805,6.029,13.2962,4.59964,2470.063,2019-11-25T07:55:16Z
2019-11-25T05:57:50Z,42.805,6.029,13.2965,4.59964,2470.077,2019-11-25T07:58:19Z
2019-11-25T06:00:54Z,42.805,6.029,13.2967,4.59964,2470.063,2019-11-25T08:01:22Z
2019-11-25T06:03:57Z,42.805,6.029,13.2963,4.59964,2470.077,2019-11-25T08:04:25Z
2019-11-25T06:07:00Z,42.805,6.029,13.2967,4.59965,2470.017,2019-11-25T08:07:29Z
2019-11-25T06:10:03Z,42.805,6.029,13.2968,4.59963,2470.077,2019-11-25T08:10:32Z
2019-11-25T06:13:06Z,42.805,6.029,13.2963,4.59964,2470.063,2019-11-25T08:13:35Z
2019-11-25T06:16:10Z,42.805,6.029,13.2963,4.59964,2470.063,2019-11-25T08:16:38Z
2019-11-25T06:19:13Z,42.805,6.029,13.2965,4.59964,2470.063,2019-11-25T08:19:41Z
2019-11-25T06:22:16Z,42.805,6.029,13.2966,4.59964,2470.077,2019-11-25T08:22:45Z
2019-11-25T06:25:19Z,42.805,6.029,13.2965,4.59963,2470.087,2019-11-25T08:25:48Z
2019-11-25T06:28:23Z,42.805,6.029,13.2965,4.59964,2470.077,2019-11-25T08:28:51Z
2019-11-25T06:31:26Z,42.805,6.029,13.2967,4.59964,2470.063,2019-11-25T08:31:54Z
2019-11-25T06:34:29Z,42.805,6.029,13.2964,4.59964,2470.087,2019-11-25T08:34:57Z
2019-11-25T06:37:32Z,42.805,6.029,13.2965,4.59963,2470.063,2019-11-25T08:38:01Z
2019-11-25T06:40:35Z,42.805,6.029,13.2964,4.59964,2470.067,2019-11-25T08:41:04Z
2019-11-25T06:43:39Z,42.805,6.029,13.2968,4.59963,2470.077,2019-11-25T08:44:07Z
2019-11-25T06:46:42Z,42.805,6.029,13.2961,4.59963,2470.063,2019-11-25T08:47:10Z
2019-11-25T06:49:45Z,42.805,6.029,13.2964,4.59964,2470.1,2019-11-25T08:50:14Z
2019-11-25T06:52:48Z,42.805,6.029,13.2964,4.59964,2470.124,2019-11-25T08:53:17Z
2019-11-25T06:55:51Z,42.805,6.029,13.2966,4.59963,2470.063,2019-11-25T08:56:20Z
2019-11-25T06:58:55Z,42.805,6.029,13.2969,4.59963,2470.053,2019-11-25T08:59:23Z
2019-11-25T07:01:58Z,42.805,6.029,13.2964,4.59964,2470.063,2019-11-25T09:02:26Z
2019-11-25T07:05:01Z,42.805,6.029,13.2963,4.59963,2470.053,2019-11-25T09:05:30Z
2019-11-25T07:08:04Z,42.805,6.029,13.2966,4.59963,2470.053,2019-11-25T09:08:33Z
2019-11-25T07:11:08Z,42.805,6.029,13.2964,4.59963,2470.053,2019-11-25T09:11:36Z
2019-11-25T07:14:11Z,42.805,6.029,13.2965,4.59963,2470.077,2019-11-25T09:14:39Z
2019-11-25T07:17:14Z,42.805,6.029,13.2965,4.59963,2470.077,2019-11-25T09:17:43Z
2019-11-25T07:20:17Z,42.805,6.029,13.2965,4.59963,2470.077,2019-11-25T09:20:46Z
2019-11-25T07:23:21Z,42.805,6.029,13.2967,4.59963,2470.1,2019-11-25T09:23:49Z
2019-11-25T07:26:24Z,42.805,6.029,13.2966,4.59963,2470.063,2019-11-25T09:26:52Z
2019-11-25T07:29:27Z,42.805,6.029,13.2963,4.59964,2470.087,2019-11-25T09:29:55Z
2019-11-25T07:32:30Z,42.805,6.029,13.2965,4.59963,2470.053,2019-11-25T09:32:59Z
2019-11-25T07:35:33Z,42.805,6.029,13.2966,4.59963,2470.077,2019-11-25T09:36:02Z
2019-11-25T07:38:37Z,42.805,6.029,13.2967,4.59963,2470.063,2019-11-25T09:39:05Z
2019-11-25T07:41:40Z,42.805,6.029,13.2966,4.59963,2470.1,2019-11-25T09:42:08Z
2019-11-25T07:44:43Z,42.805,6.029,13.2964,4.59964,2470.077,2019-11-25T09:45:12Z
2019-11-25T07:47:46Z,42.805,6.029,13.2966,4.59963,2470.053,2019-11-25T09:48:15Z
2019-11-25T07:50:49Z,42.805,6.029,13.2961,4.59963,2470.04,2019-11-25T09:51:18Z
2019-11-25T07:53:53Z,42.805,6.029,13.2965,4.59966,2470.063,2019-11-25T09:54:21Z
2019-11-25T07:56:56Z,42.805,6.029,13.2969,4.59963,2470.063,2019-11-25T09:57:24Z
2019-11-25T07:59:59Z,42.805,6.029,13.2965,4.59964,2470.053,2019-11-25T10:00:28Z
2019-11-25T08:03:02Z,42.805,6.029,13.2967,4.59963,2470.053,2019-11-25T10:03:31Z
2019-11-25T08:06:06Z,42.805,6.029,13.2964,4.59964,2470.087,2019-11-25T10:06:34Z
2019-11-25T08:09:09Z,42.805,6.029,13.2966,4.59964,2470.04,2019-11-25T10:09:37Z
2019-11-25T08:12:12Z,42.805,6.029,13.2966,4.59966,2470.063,2019-11-25T10:12:41Z
2019-11-25T08:15:15Z,42.805,6.029,13.2964,4.59964,2469.993,2019-11-25T10:15:44Z
2019-11-25T08:18:19Z,42.805,6.029,13.2967,4.59965,2470.017,2019-11-25T10:18:47Z
2019-11-25T08:21:22Z,42.805,6.029,13.2966,4.59964,2470.04,2019-11-25T10:21:50Z
2019-11-25T08:24:25Z,42.805,6.029,13.2967,4.59964,2470.03,2019-11-25T10:24:54Z
2019-11-25T08:27:28Z,42.805,6.029,13.2970,4.59966,2470.063,2019-11-25T10:27:57Z
2019-11-25T08:30:32Z,42.805,6.029,13.2964,4.59964,2470.053,2019-11-25T10:31:00Z
2019-11-25T08:33:35Z,42.805,6.029,13.2966,4.59964,2470.04,2019-11-25T10:34:03Z
2019-11-25T08:36:38Z,42.805,6.029,13.2966,4.59964,2470.04,2019-11-25T10:37:07Z
2019-11-25T08:39:41Z,42.805,6.029,13.2970,4.59964,2469.993,2019-11-25T10:40:10Z
2019-11-25T08:42:44Z,42.805,6.029,13.2967,4.59963,2470.03,2019-11-25T10:43:13Z
2019-11-25T08:45:48Z,42.805,6.029,13.2967,4.59965,2470.017,2019-11-25T10:46:16Z
2019-11-25T08:48:51Z,42.805,6.029,13.2967,4.59964,2470.04,2019-11-25T10:49:19Z
2019-11-25T08:51:54Z,42.805,6.029,13.2970,4.59965,2470.03,2019-11-25T10:52:23Z
2019-11-25T08:54:57Z,42.805,6.029,13.2967,4.59966,2470.04,2019-11-25T10:55:26Z
2019-11-25T08:58:01Z,42.805,6.029,13.2963,4.59964,2470.017,2019-11-25T10:58:29Z
2019-11-25T09:01:04Z,42.805,6.029,13.2966,4.59966,2470.03,2019-11-25T11:01:32Z
2019-11-25T09:04:07Z,42.805,6.029,13.2966,4.59966,2470.03,2019-11-25T11:04:36Z
2019-11-25T09:07:10Z,42.805,6.029,13.2967,4.59964,2470.053,2019-11-25T11:07:39Z
2019-11-25T09:10:13Z,42.805,6.029,13.2965,4.59964,2470.007,2019-11-25T11:10:42Z
2019-11-25T09:13:17Z,42.805,6.029,13.2970,4.59964,2470.053,2019-11-25T11:13:45Z
2019-11-25T09:16:20Z,42.805,6.029,13.2968,4.59964,2470.03,2019-11-25T11:16:48Z
2019-11-25T09:19:23Z,42.805,6.029,13.2968,4.59965,2469.993,2019-11-25T11:19:52Z
2019-11-25T09:22:26Z,42.805,6.029,13.2967,4.59966,2470.03,2019-11-25T11:22:55Z
2019-11-25T09:25:30Z,42.805,6.029,13.2967,4.59964,2470.03,2019-11-25T11:25:58Z
2019-11-25T09:28:33Z,42.805,6.029,13.2967,4.59964,2470.03,2019-11-25T11:29:02Z
2019-11-25T09:31:36Z,42.805,6.029,13.2967,4.59967,2470.007,2019-11-25T11:32:05Z
2019-11-25T09:34:40Z,42.805,6.029,13.2967,4.59965,2470.007,2019-11-25T11:35:08Z
2019-11-25T09:37:43Z,42.805,6.029,13.2968,4.59965,2470.007,2019-11-25T11:38:11Z
2019-11-25T09:40:46Z,42.805,6.029,13.2964,4.59964,2470.003,2019-11-25T11:41:15Z
2019-11-25T09:43:49Z,42.805,6.029,13.2964,4.59964,2469.993,2019-11-25T11:44:18Z
2019-11-25T09:46:53Z,42.805,6.029,13.2968,4.59965,2470.017,2019-11-25T11:47:21Z
2019-11-25T09:49:56Z,42.805,6.029,13.2967,4.59966,2469.993,2019-11-25T11:50:24Z
2019-11-25T09:52:59Z,42.805,6.029,13.2966,4.59964,2470.017,2019-11-25T11:53:27Z
2019-11-25T09:56:02Z,42.805,6.029,13.2968,4.59964,2469.993,2019-11-25T11:56:31Z
2019-11-25T09:59:05Z,42.805,6.029,13.2964,4.59964,2469.993,2019-11-25T11:59:34Z
2019-11-25T10:02:09Z,42.805,6.029,13.2968,4.59966,2470.017,2019-11-25T12:02:37Z
2019-11-25T10:05:12Z,42.805,6.029,13.2967,4.59966,2470.007,2019-11-25T12:05:40Z
2019-11-25T10:08:15Z,42.805,6.029,13.2967,4.59966,2469.993,2019-11-25T12:08:44Z
2019-11-25T10:11:18Z,42.805,6.029,13.2967,4.59965,2469.97,2019-11-25T12:11:47Z
2019-11-25T10:14:22Z,42.805,6.029,13.2965,4.59966,2469.993,2019-11-25T12:14:50Z
2019-11-25T10:17:25Z,42.805,6.029,13.2961,4.59966,2469.993,2019-11-25T12:17:53Z
2019-11-25T10:20:28Z,42.805,6.029,13.2967,4.59966,2469.97,2019-11-25T12:20:56Z
2019-11-25T10:23:31Z,42.805,6.029,13.2968,4.59966,2469.97,2019-11-25T12:24:00Z
2019-11-25T10:26:34Z,42.805,6.029,13.2967,4.59965,2469.97,2019-11-25T12:27:03Z
2019-11-25T10:29:38Z,42.805,6.029,13.2968,4.59966,2469.97,2019-11-25T12:30:06Z
2019-11-25T10:32:41Z,42.805,6.029,13.2971,4.59965,2469.97,2019-11-25T12:33:09Z
2019-11-25T10:35:44Z,42.805,6.029,13.2968,4.59966,2469.947,2019-11-25T12:36:13Z
2019-11-25T10:38:47Z,42.805,6.029,13.2969,4.59966,2469.97,2019-11-25T12:39:16Z
2019-11-25T10:41:50Z,42.805,6.029,13.2968,4.59965,2469.984,2019-11-25T12:42:19Z
2019-11-25T10:44:54Z,42.805,6.029,13.2970,4.59966,2469.993,2019-11-25T12:45:22Z
2019-11-25T10:47:57Z,42.805,6.029,13.2967,4.59966,2469.97,2019-11-25T12:48:25Z
2019-11-25T10:51:00Z,42.805,6.029,13.2971,4.59966,2469.947,2019-11-25T12:51:29Z
2019-11-25T10:54:03Z,42.805,6.029,13.2967,4.59966,2469.947,2019-11-25T12:54:32Z
2019-11-25T10:57:07Z,42.805,6.029,13.2969,4.59966,2469.947,2019-11-25T12:57:35Z
2019-11-25T11:00:10Z,42.805,6.029,13.2967,4.59965,2469.947,2019-11-25T13:00:38Z
2019-11-25T11:03:13Z,42.805,6.029,13.2968,4.59968,2469.923,2019-11-25T13:03:42Z
2019-11-25T11:06:16Z,42.805,6.029,13.2968,4.59966,2469.937,2019-11-25T13:06:45Z
2019-11-25T11:09:19Z,42.805,6.029,13.2970,4.59967,2469.947,2019-11-25T13:09:48Z
2019-11-25T11:12:23Z,42.805,6.029,13.2969,4.59966,2469.96,2019-11-25T13:12:51Z
2019-11-25T11:15:26Z,42.805,6.029,13.2967,4.59966,2469.984,2019-11-25T13:15:54Z
2019-11-25T11:18:29Z,42.805,6.029,13.2967,4.59965,2469.947,2019-11-25T13:18:57Z
2019-11-25T11:21:32Z,42.805,6.029,13.2971,4.59968,2469.923,2019-11-25T13:22:01Z
2019-11-25T11:24:35Z,42.805,6.029,13.2964,4.59966,2469.96,2019-11-25T13:25:04Z
2019-11-25T11:27:39Z,42.805,6.029,13.2968,4.59966,2469.96,2019-11-25T13:28:07Z
2019-11-25T11:30:42Z,42.805,6.029,13.2965,4.59968,2469.937,2019-11-25T13:31:10Z
2019-11-25T11:33:45Z,42.805,6.029,13.2966,4.59966,2469.914,2019-11-25T13:34:14Z
2019-11-25T11:36:48Z,42.805,6.029,13.2970,4.59966,2469.914,2019-11-25T13:37:17Z
2019-11-25T11:39:52Z,42.805,6.029,13.2970,4.59966,2469.923,2019-11-25T13:40:20Z
2019-11-25T11:42:55Z,42.805,6.029,13.2966,4.59964,2469.923,2019-11-25T13:43:23Z
2019-11-25T11:45:58Z,42.805,6.029,13.2965,4.59964,2469.923,2019-11-25T13:46:27Z
2019-11-25T11:49:01Z,42.805,6.029,13.2968,4.59966,2469.937,2019-11-25T13:49:30Z
2019-11-25T11:52:04Z,42.805,6.029,13.2966,4.59966,2469.947,2019-11-25T13:52:33Z
2019-11-25T11:55:07Z,42.805,6.029,13.2967,4.59966,2469.923,2019-11-25T13:55:36Z
2019-11-25T11:58:11Z,42.805,6.029,13.2969,4.59966,2469.937,2019-11-25T13:58:39Z
2019-11-25T12:01:14Z,42.805,6.029,13.2969,4.59966,2469.937,2019-11-25T14:01:42Z
2019-11-25T12:04:17Z,42.805,6.029,13.2967,4.59964,2469.89,2019-11-25T14:04:46Z
2019-11-25T12:07:20Z,42.805,6.029,13.2968,4.59965,2469.909,2019-11-25T14:07:49Z
2019-11-25T12:10:24Z,42.805,6.029,13.2967,4.59966,2469.876,2019-11-25T14:10:52Z
2019-11-25T12:13:27Z,42.805,6.029,13.2966,4.59966,2469.923,2019-11-25T14:13:55Z
2019-11-25T12:16:30Z,42.805,6.029,13.2964,4.59965,2469.876,2019-11-25T14:16:58Z
2019-11-25T12:19:33Z,42.805,6.029,13.2969,4.59966,2469.89,2019-11-25T14:20:02Z
2019-11-25T12:22:36Z,42.805,6.029,13.2967,4.59964,2469.923,2019-11-25T14:23:05Z
2019-11-25T12:25:39Z,42.805,6.029,13.2964,4.59965,2469.89,2019-11-25T14:26:08Z
2019-11-25T12:28:43Z,42.805,6.029,13.2972,4.59965,2469.9,2019-11-25T14:29:11Z
2019-11-25T12:31:46Z,42.805,6.029,13.2967,4.59966,2469.9,2019-11-25T14:32:14Z
2019-11-25T12:34:49Z,42.805,6.029,13.2965,4.59966,2469.9,2019-11-25T14:35:18Z
2019-11-25T12:37:52Z,42.805,6.029,13.2966,4.59966,2469.9,2019-11-25T14:38:21Z
2019-11-25T12:40:56Z,42.805,6.029,13.2964,4.59966,2469.9,2019-11-25T14:41:24Z
2019-11-25T12:43:59Z,42.805,6.029,13.2964,4.59965,2469.937,2019-11-25T14:44:27Z
2019-11-25T12:47:02Z,42.805,6.029,13.2967,4.59966,2469.923,2019-11-25T14:47:31Z
2019-11-25T12:50:05Z,42.805,6.029,13.2971,4.59966,2469.876,2019-11-25T14:50:34Z
2019-11-25T12:53:08Z,42.805,6.029,13.2966,4.59965,2469.886,2019-11-25T14:53:37Z
2019-11-25T12:56:12Z,42.805,6.029,13.2964,4.59964,2469.937,2019-11-25T14:56:40Z
2019-11-25T12:59:15Z,42.805,6.029,13.2962,4.59965,2469.914,2019-11-25T14:59:43Z
2019-11-25T13:02:18Z,42.805,6.029,13.2968,4.59965,2469.909,2019-11-25T15:02:47Z
2019-11-25T13:05:21Z,42.805,6.029,13.2970,4.59966,2469.937,2019-11-25T15:05:50Z
2019-11-25T13:08:24Z,42.805,6.029,13.2969,4.59965,2469.9,2019-11-25T15:08:53Z
2019-11-25T13:11:28Z,42.805,6.029,13.2967,4.59964,2469.89,2019-11-25T15:11:56Z
2019-11-25T13:14:31Z,42.805,6.029,13.2966,4.59966,2469.914,2019-11-25T15:14:59Z
2019-11-25T13:17:34Z,42.805,6.029,13.2967,4.59967,2469.937,2019-11-25T15:18:03Z
2019-11-25T13:20:37Z,42.805,6.029,13.2969,4.59965,2469.923,2019-11-25T15:21:06Z
2019-11-25T13:23:40Z,42.805,6.029,13.2967,4.59964,2469.923,2019-11-25T15:24:09Z
2019-11-25T13:26:44Z,42.805,6.029,13.2970,4.59965,2469.9,2019-11-25T15:27:13Z
2019-11-25T13:29:47Z,42.805,6.029,13.2967,4.59966,2469.937,2019-11-25T15:30:16Z
2019-11-25T13:32:50Z,42.805,6.029,13.2968,4.59964,2469.923,2019-11-25T15:33:19Z
2019-11-25T13:35:54Z,42.805,6.029,13.2965,4.59965,2469.923,2019-11-25T15:36:22Z
2019-11-25T13:38:57Z,42.805,6.029,13.2967,4.59964,2469.9,2019-11-25T15:39:25Z
2019-11-25T13:42:00Z,42.805,6.029,13.2964,4.59965,2469.923,2019-11-25T15:42:28Z
2019-11-25T13:45:03Z,42.805,6.029,13.2964,4.59964,2469.9,2019-11-25T15:45:32Z
2019-11-25T13:48:06Z,42.805,6.029,13.2965,4.59965,2469.9,2019-11-25T15:48:35Z
2019-11-25T13:51:10Z,42.805,6.029,13.2972,4.59965,2469.937,2019-11-25T15:51:38Z
2019-11-25T13:54:13Z,42.805,6.029,13.2967,4.59967,2469.914,2019-11-25T15:54:41Z
2019-11-25T13:57:16Z,42.805,6.029,13.2964,4.59967,2469.923,2019-11-25T15:57:45Z
2019-11-25T14:00:19Z,42.805,6.029,13.2966,4.59965,2469.937,2019-11-25T16:00:48Z
2019-11-25T14:03:22Z,42.805,6.029,13.2964,4.59968,2469.9,2019-11-25T16:03:51Z
2019-11-25T14:06:26Z,42.805,6.029,13.2968,4.59964,2469.937,2019-11-25T16:06:54Z
2019-11-25T14:09:29Z,42.805,6.029,13.2967,4.59964,2469.923,2019-11-25T16:09:57Z
2019-11-25T14:12:32Z,42.805,6.029,13.2968,4.59965,2469.923,2019-11-25T16:13:01Z
2019-11-25T14:15:35Z,42.805,6.029,13.2963,4.59966,2469.923,2019-11-25T16:16:04Z
2019-11-25T14:18:38Z,42.805,6.029,13.2969,4.59966,2469.923,2019-11-25T16:19:07Z
2019-11-25T14:21:42Z,42.805,6.029,13.2968,4.59964,2469.947,2019-11-25T16:22:10Z
2019-11-25T14:24:45Z,42.805,6.029,13.2965,4.59964,2469.923,2019-11-25T16:25:13Z
2019-11-25T14:27:48Z,42.805,6.029,13.2968,4.59964,2469.984,2019-11-25T16:28:17Z
2019-11-25T14:30:51Z,42.805,6.029,13.2966,4.59966,2469.974,2019-11-25T16:31:20Z
2019-11-25T14:33:54Z,42.805,6.029,13.2968,4.59966,2469.947,2019-11-25T16:34:23Z
2019-11-25T14:36:58Z,42.805,6.029,13.2967,4.59966,2469.947,2019-11-25T16:37:26Z
2019-11-25T14:40:01Z,42.805,6.029,13.2966,4.59967,2469.947,2019-11-25T16:40:29Z
2019-11-25T14:43:04Z,42.805,6.029,13.2971,4.59968,2469.956,2019-11-25T16:43:33Z
2019-11-25T14:46:07Z,42.805,6.029,13.2968,4.59966,2469.97,2019-11-25T16:46:36Z
2019-11-25T14:49:10Z,42.805,6.029,13.2966,4.59966,2470.017,2019-11-25T16:49:39Z
2019-11-25T14:52:14Z,42.805,6.029,13.2968,4.59966,2469.947,2019-11-25T16:52:42Z
2019-11-25T14:55:17Z,42.805,6.029,13.2967,4.59966,2469.947,2019-11-25T16:55:45Z
2019-11-25T14:58:20Z,42.805,6.029,13.2967,4.59966,2469.984,2019-11-25T16:58:49Z
2019-11-25T15:01:23Z,42.805,6.029,13.2967,4.59966,2469.993,2019-11-25T17:01:52Z